Daleville, AL

1:34 AM CDT on August 24, 2016 (GMT -0500)
Cairns Army Air Field

Weather History for KOZR - February, 2014

Change the Weather History Date:

Wednesday, February 5, 2014

  Actual Average Record
Temperature  
Mean Temperature 54 °F -  
Max Temperature 69 °F 58 °F 80 °F (2008)
Min Temperature 37 °F 38 °F 21 °F (2009)
Degree Days  
Heating Degree Days 11    
Growing Degree Days 4 (Base 50)    
Moisture  
Dew Point 55 °F    
Average Humidity 85    
Maximum Humidity 100    
Minimum Humidity 57    
Precipitation  
Precipitation 0.32 in - - ()
Sea Level Pressure  
Sea Level Pressure 30.02 in    
Wind  
Wind Speed 13 mph (West)    
Max Wind Speed 20 mph    
Max Gust Speed 26 mph    
Visibility 8 miles    
Events Rain    
Averages and records for this station are not official NWS values.
T = Trace of Precipitation, MM = Missing Value Source: NWS Daily Summary

Daily Weather History Graph

Daily Weather History Graph

Search for Another Location

Airport or City:

Trip Planner

Search our weather history database for the weather conditions in past years. The results will help you decide how hot, cold, wet, or windy it might be!

Date:

Astronomy

Feb. 05, 2014 Rise Set
Actual Time 6:32 AM CST 5:21 PM CST
Civil Twilight 6:07 AM CST 5:46 PM CST
Nautical Twilight 5:38 AM CST 6:15 PM CST
Astronomical Twilight 5:09 AM CST 6:44 PM CST
Moon 10:14 AM CST (2/5) 11:46 PM CST (2/5)
Length of Visible Light 11h 39m
Length of Day
10h 49m
Waxing Crescent, 39% of the Moon is Illuminated
Feb 5
Waxing Crescent
Feb 6
First Quarter
Feb 14
Full
Feb 22
Last Quarter
Mar 1
New

Hourly Weather History & Observations

Time (CST) Temp. Windchill Dew Point Humidity Pressure Visibility Wind Dir Wind Speed Gust Speed Precip Events Conditions
12:18 AM 66.2 °F - 64.4 °F 94% 29.93 in 10.0 mi SSE 10.4 mph - N/A   Overcast
12:53 AM 66.2 °F - 66.2 °F 100% 29.94 in 5.0 mi South 15.0 mph - N/A   Overcast
12:58 AM 66.0 °F - 65.7 °F 99% 29.94 in 4.0 mi South 12.7 mph - N/A   Overcast
1:13 AM 66.2 °F - 66.2 °F 100% 29.93 in 3.0 mi South 16.1 mph 21.9 mph N/A   Overcast
1:18 AM 66.2 °F - 66.2 °F 100% 29.93 in 2.0 mi South 13.8 mph 21.9 mph N/A   Mostly Cloudy
1:23 AM 66.2 °F - 66.2 °F 100% 29.93 in 1.5 mi South 15.0 mph 21.9 mph N/A   Scattered Clouds
1:53 AM 66.2 °F - 66.2 °F 100% 29.92 in 1.2 mi South 13.8 mph - N/A   Clear
1:58 AM 66.6 °F - 66.4 °F 99% 29.92 in 1.5 mi South 17.3 mph 21.9 mph N/A   Clear
2:01 AM 66.2 °F - 66.2 °F 100% 29.91 in 2.5 mi South 15.0 mph 21.9 mph N/A   Overcast
2:06 AM 66.2 °F - 66.2 °F 100% 29.91 in 3.0 mi South 15.0 mph 21.9 mph N/A   Overcast
2:11 AM 66.2 °F - 66.2 °F 100% 29.91 in 4.0 mi South 15.0 mph 21.9 mph N/A   Overcast
2:21 AM 68.0 °F - 66.2 °F 94% 29.91 in 9.0 mi South 17.3 mph 23.0 mph N/A   Mostly Cloudy
2:26 AM 68.0 °F - 68.0 °F 100% 29.90 in 10.0 mi South 16.1 mph - N/A   Mostly Cloudy
2:36 AM 68.0 °F - 68.0 °F 100% 29.90 in 10.0 mi South 18.4 mph 25.3 mph N/A   Overcast
2:46 AM 68.0 °F - 68.0 °F 100% 29.90 in 10.0 mi South 18.4 mph 24.2 mph N/A   Overcast
2:56 AM 68.0 °F - 68.0 °F 100% 29.91 in 10.0 mi SSW 17.3 mph 25.3 mph N/A   Overcast
2:58 AM 68.0 °F - 68.0 °F 100% 29.91 in 10.0 mi SSW 19.6 mph 25.3 mph N/A   Overcast
3:13 AM 68.0 °F - 68.0 °F 100% 29.92 in 10.0 mi SSW 16.1 mph 26.5 mph N/A   Overcast
3:48 AM 69.8 °F - 68.0 °F 94% 29.91 in 10.0 mi SW 12.7 mph - N/A Rain Light Rain
3:53 AM 69.8 °F - 68.0 °F 94% 29.91 in 4.0 mi SW 12.7 mph - N/A Rain Light Rain
3:58 AM 69.3 °F - 67.8 °F 95% 29.91 in 4.0 mi SW 11.5 mph - 0.02 in Rain Light Rain
4:13 AM 69.8 °F - 68.0 °F 94% 29.92 in 2.0 mi SW 12.7 mph - N/A Rain Light Rain
4:18 AM 69.8 °F - 68.0 °F 94% 29.92 in 4.0 mi West 12.7 mph - N/A Rain Light Rain
4:20 AM 69.8 °F - 68.0 °F 94% 29.94 in 7.0 mi WNW 18.4 mph 23.0 mph N/A Rain Light Rain
4:25 AM 68.0 °F - 66.2 °F 94% 29.94 in 1.0 mi WNW 10.4 mph 23.0 mph N/A Rain Heavy Rain
4:30 AM 66.2 °F - 66.2 °F 100% 29.94 in 0.8 mi WNW 16.1 mph 20.7 mph N/A Rain Heavy Rain
4:35 AM 66.2 °F - 64.4 °F 94% 29.94 in 4.0 mi WNW 13.8 mph 23.0 mph N/A Rain Light Rain
4:40 AM 66.2 °F - 64.4 °F 94% 29.94 in 9.0 mi WNW 12.7 mph 23.0 mph N/A Rain Light Rain
4:45 AM 66.2 °F - 62.6 °F 88% 29.94 in 10.0 mi West 11.5 mph - N/A   Mostly Cloudy
4:52 AM 64.4 °F - 62.6 °F 94% 29.95 in 10.0 mi WNW 10.4 mph - N/A Rain Light Rain
4:58 AM 65.1 °F - 63.0 °F 93% 29.96 in 10.0 mi West 10.4 mph - 0.30 in   Light Drizzle
5:04 AM 64.4 °F - 62.6 °F 94% 29.95 in 10.0 mi West 10.4 mph - N/A   Mostly Cloudy
5:20 AM 64.4 °F - 60.8 °F 88% 29.96 in 10.0 mi West 10.4 mph - N/A   Light Drizzle
5:36 AM 64.4 °F - 60.8 °F 88% 29.97 in 10.0 mi WNW 9.2 mph - N/A   Mostly Cloudy
5:58 AM 63.5 °F - 61.3 °F 93% 29.98 in 10.0 mi West 8.1 mph - 0.00 in   Scattered Clouds
6:58 AM 62.1 °F - 59.2 °F 90% 30.00 in 10.0 mi WNW 6.9 mph - N/A   Mostly Cloudy
7:58 AM 60.3 °F - 55.4 °F 84% 30.05 in 10.0 mi WNW 6.9 mph - N/A   Mostly Cloudy
8:13 AM 59.0 °F - 55.4 °F 88% 30.04 in 10.0 mi NW 11.5 mph - N/A   Mostly Cloudy
8:23 AM 59.0 °F - 53.6 °F 82% 30.04 in 10.0 mi NW 13.8 mph - N/A   Scattered Clouds
8:58 AM 58.8 °F - 51.4 °F 76% 30.07 in 10.0 mi NW 12.7 mph - N/A   Partly Cloudy
9:58 AM 59.5 °F - 50.0 °F 71% 30.10 in 10.0 mi WNW 11.5 mph - N/A   Scattered Clouds
10:43 AM 57.2 °F - 48.2 °F 72% 30.10 in 10.0 mi NW 10.4 mph - N/A   Overcast
10:53 AM 57.2 °F - 46.4 °F 67% 30.11 in 10.0 mi NW 11.5 mph 18.4 mph N/A   Mostly Cloudy
10:58 AM 57.0 °F - 46.9 °F 69% 30.11 in 10.0 mi WNW 13.8 mph - N/A   Scattered Clouds
11:09 AM 57.2 °F - 46.4 °F 67% 30.09 in 10.0 mi NNW 15.0 mph - N/A   Scattered Clouds
11:19 AM 55.4 °F - 46.4 °F 72% 30.10 in 10.0 mi NNW 16.1 mph 20.7 mph N/A   Mostly Cloudy
11:44 AM 55.4 °F - 44.6 °F 67% 30.11 in 10.0 mi NW 10.4 mph 20.7 mph N/A   Scattered Clouds
11:58 AM 56.5 °F - 45.1 °F 66% 30.11 in 10.0 mi WNW 12.7 mph - N/A   Scattered Clouds
12:30 PM 55.4 °F - 44.6 °F 67% 30.09 in 10.0 mi NW 11.5 mph - N/A   Scattered Clouds
12:58 PM 55.6 °F - 43.2 °F 63% 30.09 in 10.0 mi NW 9.2 mph 17.3 mph N/A   Clear
1:58 PM 56.3 °F - 42.1 °F 59% 30.10 in 10.0 mi NNW 16.1 mph 19.6 mph N/A   Clear
2:58 PM 54.5 °F - 39.6 °F 57% 30.11 in 10.0 mi NW 15.0 mph - N/A   Clear
3:58 PM 52.5 °F - 38.3 °F 58% 30.14 in 10.0 mi NW 11.5 mph - N/A   Clear
4:58 PM 48.7 °F - 37.2 °F 64% 30.17 in 10.0 mi NNW 11.5 mph - N/A   Clear
5:58 PM 44.6 °F 38.8 °F 35.6 °F 71% 30.18 in 10.0 mi NNW 11.5 mph - N/A   Clear
6:58 PM 42.8 °F 38.0 °F 35.2 °F 75% 30.21 in 10.0 mi NW 8.1 mph - N/A   Clear
7:58 PM 41.9 °F 36.9 °F 34.0 °F 73% 30.21 in 10.0 mi NW 8.1 mph - N/A   Clear
8:53 PM 41.0 °F 34.7 °F 32.0 °F 70% 30.21 in 10.0 mi NNW 10.4 mph - N/A   Mostly Cloudy
8:58 PM 41.7 °F 36.1 °F 32.9 °F 71% 30.23 in 10.0 mi NNW 9.2 mph - N/A   Mostly Cloudy
9:28 PM 41.0 °F 32.2 °F 32.0 °F 70% 30.22 in 10.0 mi NNW 18.4 mph 23.0 mph N/A   Scattered Clouds
9:58 PM 40.1 °F 34.1 °F 30.7 °F 69% 30.24 in 10.0 mi NNW 9.2 mph - N/A   Clear
10:58 PM 39.0 °F 33.4 °F 30.6 °F 72% 30.25 in 10.0 mi NNW 8.1 mph - N/A   Clear
11:58 PM 37.6 °F 31.6 °F 30.4 °F 75% 30.25 in 10.0 mi NNW 8.1 mph - N/A   Clear